This is the latest recevied weather packets stored in our database for station/object EA5GTE-12. If no packets are shown the sender has not sent any weather packets the latest 10 day(s).
| Time | Temp. | Humidity | Pressure | Rain* | Wind** | Luminosity | Snow |
|---|---|---|---|---|---|---|---|
| 1777857738 | 13.89° C | 100% | 936 hPa | - | - | - | - |
| 1777855938 | 13.89° C | 100% | 936.1 hPa | - | - | - | - |
| 1777855038 | 14.44° C | 100% | 936 hPa | - | - | - | - |
| 1777854138 | 14.44° C | 100% | 936 hPa | - | - | - | - |
| 1777853238 | 14.44° C | 100% | 936.2 hPa | - | - | - | - |
| 1777852338 | 14.44° C | 100% | 936.4 hPa | - | - | - | - |
| 1777851438 | 14.44° C | 100% | 936.5 hPa | - | - | - | - |
| 1777850538 | 14.44° C | 100% | 936.6 hPa | - | - | - | - |
| 1777849638 | 14.44° C | 100% | 936.6 hPa | - | - | - | - |
| 1777848738 | 14.44° C | 100% | 936.7 hPa | - | - | - | - |
| 1777847838 | 14.44° C | 100% | 936.7 hPa | - | - | - | - |
| 1777846938 | 14.44° C | 100% | 936.7 hPa | - | - | - | - |
| 1777846038 | 14.44° C | 100% | 936.6 hPa | - | - | - | - |
| 1777845138 | 14.44° C | 100% | 936.5 hPa | - | - | - | - |
| 1777844238 | 15° C | 100% | 936.5 hPa | - | - | - | - |
| 1777843337 | 15° C | 100% | 936.5 hPa | - | - | - | - |
| 1777842438 | 15° C | 100% | 936.3 hPa | - | - | - | - |
| 1777841537 | 15.56° C | 100% | 936.2 hPa | - | - | - | - |
| 1777840637 | 16.11° C | 100% | 936.1 hPa | - | - | - | - |
| 1777839737 | 16.11° C | 100% | 935.9 hPa | - | - | - | - |
| 1777838837 | 15.56° C | 100% | 935.7 hPa | - | - | - | - |
| 1777837937 | 16.67° C | 100% | 935.4 hPa | - | - | - | - |
| 1777837037 | 16.11° C | 100% | 935.1 hPa | - | - | - | - |
| 1777836137 | 16.11° C | 100% | 935 hPa | - | - | - | - |
| 1777834338 | 17.78° C | 98% | 934.7 hPa | - | - | - | - |
* Rain since midnight (hover to see other rain measurements)
** Current wind speed in m/s (hover to see current wind gust speed)